This is the latest recevied weather packets stored in our database for station/object DL8BNG-13. If no packets are shown the sender has not sent any weather packets the latest 10 day(s).
| Time | Temp. | Humidity | Pressure | Rain* | Wind** | Luminosity | Snow |
|---|---|---|---|---|---|---|---|
| 1777212003 | 17.78° C | 32% | - | 0 mm | - | - | - |
| 1777211103 | 17.22° C | 31% | - | 0 mm | - | - | - |
| 1777210202 | 17.22° C | 31% | - | 0 mm | - | - | - |
| 1777209303 | 17.22° C | 33% | - | 0 mm | - | - | - |
| 1777208402 | 17.78° C | 33% | - | 0 mm | - | - | - |
| 1777207503 | 18.33° C | 33% | - | 0 mm | - | - | - |
| 1777206603 | 18.33° C | 33% | - | 0 mm | - | - | - |
| 1777205704 | 18.33° C | 35% | - | 0 mm | - | - | - |
| 1777204803 | 17.22° C | 34% | - | 0 mm | - | - | - |
| 1777203903 | 17.78° C | 36% | - | 0 mm | - | - | - |
| 1777203002 | 17.22° C | 35% | - | 0 mm | - | - | - |
| 1777202102 | 17.22° C | 35% | - | 0 mm | - | - | - |
| 1777201202 | 17.22° C | 36% | - | 0 mm | - | - | - |
| 1777200302 | 18.33° C | 34% | - | 0 mm | - | - | - |
| 1777199403 | 17.78° C | 36% | - | 0 mm | - | - | - |
| 1777198503 | 16.67° C | 37% | - | 0 mm | - | - | - |
| 1777197602 | 16.67° C | 37% | - | 0 mm | - | - | - |
| 1777196703 | 16.67° C | 39% | - | 0 mm | - | - | - |
| 1777195803 | 16.11° C | 40% | - | 0 mm | - | - | - |
| 1777194903 | 14.44° C | 44% | - | 0 mm | - | - | - |
| 1777194003 | 14.44° C | 44% | - | 0 mm | - | - | - |
| 1777193103 | 13.89° C | 46% | - | 0 mm | - | - | - |
| 1777192203 | 13.89° C | 47% | - | 0 mm | - | - | - |
| 1777191303 | 13.89° C | 50% | - | 0 mm | - | - | - |
| 1777190402 | 13.33° C | 51% | - | 0 mm | - | - | - |
* Rain since midnight (hover to see other rain measurements)
** Current wind speed in m/s (hover to see current wind gust speed)